Location: Terra Rouge Observatory
(46.0000°N, 62.7500°W)
Time: 02:31:54
(UTC-03:00)

Amateur Radio Satellites - All Passes

Search period start: 18 April 2014 02:01
Search period end: 19 April 2014 02:01
Location: Terra Rouge Observatory, 46.0000°N, 62.7500°W

Satellite Date Start Highest point End Downlink Frequencies (MHz)
Time Altitude Azimuth
UOSAT-12 18 Apr 02:22:13 02:26:40 39° 45° (NE) 02:31:05 437.025 FM, 437.400 FM
Sapphire 18 Apr 02:25:56 02:31:17 60° 307° (NW) 02:36:40 437.095 MHz 1200 baud AX-25 AFSK
AO-27 18 Apr 02:26:14 02:30:17 23° 93° (E) 02:34:19 436.795 MHz FM
ITAMSAT 1 18 Apr 02:37:10 02:41:35 28° 95° (E) 02:45:58 435.822 SSB
Oscar 19 18 Apr 02:45:38 02:50:48 61° 101° (E) 02:55:56 437.125 CW, 437.150 USB
Oscar 16 18 Apr 02:53:34 02:58:48 76° 103° (ESE) 03:03:59 437.025 USB, Beacon 2401.1428
KITSAT 1 18 Apr 02:55:33 03:02:34 34° 108° (ESE) 03:09:37 435.175 FM
TMSAT-1 18 Apr 03:00:29 03:01:14 10° 85° (E) 03:01:59 436.925 FM
AO-Echo 18 Apr 03:02:11 03:06:38 36° 97° (E) 03:10:58 ?
OPAL 18 Apr 03:11:52 03:16:50 61° 256° (WSW) 03:21:54 ?
PCSat 18 Apr 03:12:04 03:16:46 29° 317° (NW) 03:21:30 145.825 MHz
Uribyol 2 18 Apr 03:25:35 03:30:47 78° 104° (ESE) 03:35:58 436.500 FM
Gurwin Techsat 1B 18 Apr 03:47:34 03:52:34 40° 97° (E) 03:57:31 435.225 FM
UOSAT-12 18 Apr 04:02:32 04:06:46 33° 244° (WSW) 04:10:57 437.025 FM, 437.400 FM
AO-27 18 Apr 04:05:05 04:10:06 51° 291° (WNW) 04:15:05 436.795 MHz FM
AO-7 18 Apr 04:05:28 04:10:02 16° 86° (E) 04:14:34 29.400 - 29.500 MHz
Sapphire 18 Apr 04:12:40 04:15:52 16° 329° (NNW) 04:19:05 437.095 MHz 1200 baud AX-25 AFSK
ITAMSAT 1 18 Apr 04:16:22 04:21:13 42° 292° (WNW) 04:26:03 435.822 SSB
Oscar 10/S400 18 Apr 04:17:08 04:40:38 40° 139° (SE) 13:12:09 145.825 - 145.975 CW/USB, Beacon 145.810 USB
Oscar 19 18 Apr 04:25:53 04:29:43 21° 299° (WNW) 04:33:32 437.125 CW, 437.150 USB
Oscar 16 18 Apr 04:34:13 04:37:33 18° 302° (WNW) 04:40:53 437.025 USB, Beacon 2401.1428
TMSAT-1 18 Apr 04:36:43 04:42:03 77° 103° (ESE) 04:47:20 436.925 FM
AO-Echo 18 Apr 04:41:12 04:45:19 28° 295° (WNW) 04:49:20 ?
KITSAT 1 18 Apr 04:49:26 04:57:30 65° 309° (NW) 05:05:37 435.175 FM
Uosat F 18 Apr 04:57:25 05:02:14 45° 99° (E) 05:07:00 435.120 FM
Uribyol 2 18 Apr 05:06:25 05:09:39 17° 302° (WNW) 05:12:54 436.500 FM
JAS-1B 18 Apr 05:13:18 05:19:01 70° 103° (ESE) 05:24:47 435.800 - 435.900 CW/SSB
Gurwin Techsat 1B 18 Apr 05:27:47 05:32:25 31° 295° (WNW) 05:37:01 435.225 FM
RS-15 18 Apr 05:41:58 05:47:56 16° 97° (E) 05:53:48 29.354 - 29.394 USB, Beacon 29.352 USB
STRAND 1 18 Apr 05:48:16 05:52:18 24° 62° (ENE) 05:56:19 ?
AO-7 18 Apr 05:55:53 06:04:14 74° 106° (ESE) 06:12:33 29.400 - 29.500 MHz
TMSAT-1 18 Apr 06:17:57 06:21:22 18° 302° (WNW) 06:24:46 436.925 FM
Uosat F 18 Apr 06:36:43 06:40:48 26° 297° (WNW) 06:44:52 435.120 FM
KITSAT 1 18 Apr 06:48:11 06:54:36 25° 335° (NNW) 07:01:02 435.175 FM
JAS-2 18 Apr 06:53:22 06:55:24 12° 88° (E) 06:57:29 435.800 - 435.900 CW/SSB, 435.910 FM
JAS-1B 18 Apr 07:05:17 07:09:09 19° 304° (NW) 07:12:59 435.800 - 435.900 CW/SSB
Hamsat 18 Apr 07:11:07 07:15:19 47° 99° (E) 07:19:32 145.90 MHz
STRAND 1 18 Apr 07:26:13 07:31:11 51° 260° (W) 07:36:11 ?
MaSat-1 18 Apr 07:28:07 07:30:55 61° 61° (ENE) 07:34:11 437.345 MHz
Sapphire 18 Apr 07:46:37 07:48:12 11° 23° (NNE) 07:49:46 437.095 MHz 1200 baud AX-25 AFSK
RS-15 18 Apr 07:46:57 07:58:06 68° 118° (ESE) 08:08:56 29.354 - 29.394 USB, Beacon 29.352 USB
AO-7 18 Apr 07:49:26 07:56:22 31° 307° (NW) 08:03:19 29.400 - 29.500 MHz
SO-67 18 Apr 08:04:21 08:07:33 32° 97° (E) 08:10:44 435.3500 MHz FM
PCSat 18 Apr 08:30:36 08:34:19 18° 34° (NE) 08:38:01 145.825 MHz
JAS-2 18 Apr 08:35:53 08:41:12 88° 105° (ESE) 08:46:59 435.800 - 435.900 CW/SSB, 435.910 FM
Hamsat 18 Apr 08:47:53 08:51:00 20° 296° (WNW) 08:54:07 145.90 MHz
KITSAT 1 18 Apr 08:48:07 08:53:24 18° 5° (N) 08:58:40 435.175 FM
Sapphire 18 Apr 09:28:19 09:33:19 36° 46° (NE) 09:38:16 437.095 MHz 1200 baud AX-25 AFSK
SO-67 18 Apr 09:38:06 09:40:30 18° 294° (WNW) 09:42:53 435.3500 MHz FM
RS-15 18 Apr 10:00:30 10:11:07 46° 324° (NW) 10:21:34 29.354 - 29.394 USB, Beacon 29.352 USB
HO-68 18 Apr 10:04:22 10:11:17 48° 100° (E) 10:18:10 435.675 MHz FM
PCSat 18 Apr 10:13:13 10:18:40 76° 56° (NE) 10:24:05 145.825 MHz
Oscar 11 18 Apr 10:18:02 10:21:39 25° 94° (E) 10:25:15 145.825 FM, Beacon 2401.500 USB
JAS-2 18 Apr 10:22:50 10:25:43 15° 303° (WNW) 10:28:42 435.800 - 435.900 CW/SSB, 435.910 FM
KITSAT 1 18 Apr 10:44:40 10:51:48 32° 34° (NE) 10:58:52 435.175 FM
Sapphire 18 Apr 11:11:44 11:16:50 43° 246° (WSW) 11:21:54 437.095 MHz 1200 baud AX-25 AFSK
FUNcube-1 18 Apr 11:39:33 11:43:44 58° 101° (E) 11:47:59 145.950 - 145.970 MHz USB
Saudisat 1A 18 Apr 11:44:37 11:48:47 40° 119° (ESE) 11:52:59 436.775 MHz
HO-68 18 Apr 11:52:20 11:58:51 39° 299° (WNW) 12:05:22 435.675 MHz FM
Oscar 11 18 Apr 11:53:57 11:57:55 35° 291° (WNW) 12:01:51 145.825 FM, Beacon 2401.500 USB
PCSat 18 Apr 11:57:56 12:01:28 18° 255° (WSW) 12:04:58 145.825 MHz
RS-15 18 Apr 12:17:51 12:27:00 29° 358° (N) 12:36:08 29.354 - 29.394 USB, Beacon 29.352 USB
Oscar 19 18 Apr 12:28:12 12:31:28 17° 58° (ENE) 12:34:45 437.125 CW, 437.150 USB
Oscar 16 18 Apr 12:35:37 12:39:23 21° 60° (ENE) 12:43:11 437.025 USB, Beacon 2401.1428
KITSAT 1 18 Apr 12:40:02 12:48:11 86° 238° (WSW) 12:56:16 435.175 FM
AO-Echo 18 Apr 12:43:29 12:44:20 10° 54° (NE) 12:45:12 ?
Uribyol 2 18 Apr 13:08:17 13:12:13 23° 61° (ENE) 13:16:09 436.500 FM
FUNcube-1 18 Apr 13:17:12 13:19:45 16° 298° (WNW) 13:22:20 145.950 - 145.970 MHz USB
Saudisat 1A 18 Apr 13:24:29 13:28:29 31° 318° (NW) 13:32:30 436.775 MHz
Gurwin Techsat 1B 18 Apr 13:34:54 13:37:17 13° 55° (NE) 13:39:41 435.225 FM
AO-27 18 Apr 13:46:36 13:51:30 44° 68° (ENE) 13:56:25 436.795 MHz FM
ITAMSAT 1 18 Apr 13:57:29 14:02:31 54° 70° (ENE) 14:07:34 435.822 SSB
Oscar 19 18 Apr 14:05:05 14:10:13 76° 257° (WSW) 14:15:25 437.125 CW, 437.150 USB
JAS-1B 18 Apr 14:13:06 14:17:39 18° 55° (NE) 14:21:49 435.800 - 435.900 CW/SSB
Oscar 16 18 Apr 14:13:15 14:18:19 60° 259° (W) 14:23:26 437.025 USB, Beacon 2401.1428
AO-Echo 18 Apr 14:16:59 14:22:10 64° 72° (ENE) 14:27:15 ?
TMSAT-1 18 Apr 14:21:50 14:25:55 23° 61° (ENE) 14:30:00 436.925 FM
RS-15 18 Apr 14:32:56 14:43:09 42° 31° (NNE) 14:53:28 29.354 - 29.394 USB, Beacon 29.352 USB
KITSAT 1 18 Apr 14:37:01 14:42:27 20° 258° (WSW) 14:47:52 435.175 FM
Uosat F 18 Apr 14:37:56 14:40:06 13° 55° (NE) 14:42:16 435.120 FM
Uribyol 2 18 Apr 14:46:16 14:51:19 56° 259° (W) 14:56:25 436.500 FM
AO-7 18 Apr 15:06:39 15:13:36 32° 53° (NE) 15:20:33 29.400 - 29.500 MHz
Gurwin Techsat 1B 18 Apr 15:11:06 15:16:24 78° 73° (ENE) 15:21:44 435.225 FM
OPAL 18 Apr 15:19:28 15:23:59 29° 97° (E) 15:28:29 ?
AO-27 18 Apr 15:26:52 15:31:12 26° 266° (W) 15:35:33 436.795 MHz FM
ITAMSAT 1 18 Apr 15:38:25 15:42:21 22° 268° (W) 15:46:18 435.822 SSB
SO-50 18 Apr 15:47:09 15:50:48 25° 114° (ESE) 15:54:29 436.795 FM
AO-Echo 18 Apr 15:57:46 16:01:21 19° 269° (W) 16:04:54 ?
JAS-1B 18 Apr 15:59:26 16:07:32 79° 73° (ENE) 16:14:17 435.800 - 435.900 CW/SSB
TMSAT-1 18 Apr 16:00:17 16:05:28 56° 260° (W) 16:10:42 436.925 FM
ISS 18 Apr 16:03:41 16:06:29 25° 139° (SE) 16:09:18 145.800 FM
Uosat F 18 Apr 16:13:04 16:18:06 81° 74° (ENE) 16:23:09 435.120 FM
RS-15 18 Apr 16:45:39 16:56:35 79° 238° (WSW) 17:07:47 29.354 - 29.394 USB, Beacon 29.352 USB
Gurwin Techsat 1B 18 Apr 16:53:58 16:56:59 15° 272° (W) 17:00:02 435.225 FM
AO-7 18 Apr 16:57:31 17:05:46 72° 254° (WSW) 17:14:05 29.400 - 29.500 MHz
OPAL 18 Apr 16:58:05 17:02:59 42° 295° (WNW) 17:07:52 ?
SO-50 18 Apr 17:26:50 17:31:09 45° 313° (NW) 17:35:31 436.795 FM
ISS 18 Apr 17:39:43 17:43:02 61° 337° (NNW) 17:46:23 145.800 FM
JAS-1B 18 Apr 17:52:45 17:58:37 22° 268° (W) 18:03:51 435.800 - 435.900 CW/SSB
Uosat F 18 Apr 17:55:05 17:57:31 14° 272° (W) 17:59:58 435.120 FM
Hamsat 18 Apr 18:07:02 18:11:03 45° 71° (ENE) 18:15:07 145.90 MHz
UOSAT-12 18 Apr 18:15:40 18:19:57 41° 118° (ESE) 18:24:19 437.025 FM, 437.400 FM
Saudisat 1A 18 Apr 18:30:23 18:33:00 15° 30° (NNE) 18:35:36 436.775 MHz
SO-67 18 Apr 18:41:15 18:43:42 18° 66° (ENE) 18:46:09 435.3500 MHz FM
JAS-2 18 Apr 18:50:57 18:56:30 48° 70° (ENE) 19:01:36 435.800 - 435.900 CW/SSB, 435.910 FM
HO-68 18 Apr 18:54:09 18:56:10 11° 42° (NE) 18:58:11 435.675 MHz FM
AO-7 18 Apr 18:55:43 19:00:01 15° 274° (W) 19:04:21 29.400 - 29.500 MHz
RS-15 18 Apr 18:59:52 19:07:07 21° 261° (W) 19:14:31 29.354 - 29.394 USB, Beacon 29.352 USB
SO-50 18 Apr 19:10:58 19:12:52 12° 335° (NNW) 19:14:47 436.795 FM
ISS 18 Apr 19:17:11 19:20:13 30° 357° (N) 19:23:14 145.800 FM
STRAND 1 18 Apr 19:34:13 19:39:06 44° 99° (E) 19:43:57 ?
Hamsat 18 Apr 19:44:25 19:47:18 18° 269° (W) 19:50:13 145.90 MHz
UOSAT-12 18 Apr 19:56:04 20:00:12 32° 318° (NW) 20:04:26 437.025 FM, 437.400 FM
Saudisat 1A 18 Apr 20:09:01 20:13:27 68° 51° (NE) 20:17:49 436.775 MHz
SO-67 18 Apr 20:13:30 20:16:39 31° 264° (W) 20:19:50 435.3500 MHz FM
HO-68 18 Apr 20:35:26 20:42:09 47° 63° (ENE) 20:48:55 435.675 MHz FM
JAS-2 18 Apr 20:37:07 20:41:50 25° 266° (W) 20:46:16 435.800 - 435.900 CW/SSB, 435.910 FM
ISS 18 Apr 20:54:14 20:57:29 43° 17° (NNE) 21:00:43 145.800 FM
STRAND 1 18 Apr 21:13:52 21:18:05 27° 297° (WNW) 21:22:17 ?
Oscar 11 18 Apr 21:15:41 21:19:19 27° 66° (ENE) 21:22:59 145.825 FM, Beacon 2401.500 USB
MaSat-1 18 Apr 21:35:30 21:36:57 13° 110° (ESE) 21:38:19 437.345 MHz
UOSAT-12 18 Apr 21:40:52 21:41:50 11° 341° (NNW) 21:42:49 437.025 FM, 437.400 FM
Saudisat 1A 18 Apr 21:49:53 21:52:32 16° 249° (WSW) 21:55:11 436.775 MHz
HO-68 18 Apr 22:23:24 22:29:58 39° 263° (W) 22:36:35 435.675 MHz FM
ISS 18 Apr 22:31:02 22:34:16 45° 216° (SW) 22:37:29 145.800 FM
SO-50 18 Apr 22:36:13 22:38:25 13° 26° (NNE) 22:40:38 436.795 FM
FUNcube-1 18 Apr 22:38:38 22:42:47 63° 74° (ENE) 22:46:56 145.950 - 145.970 MHz USB
Oscar 11 18 Apr 22:51:36 22:55:26 31° 264° (W) 22:59:19 145.825 FM, Beacon 2401.500 USB
MaSat-1 18 Apr 23:12:53 23:15:13 24° 304° (NW) 23:17:23 437.345 MHz
Sapphire 19 Apr 00:14:40 00:18:04 17° 105° (ESE) 00:21:29 437.095 MHz 1200 baud AX-25 AFSK
SO-50 19 Apr 00:15:34 00:20:05 49° 48° (NE) 00:24:38 436.795 FM
FUNcube-1 19 Apr 00:17:47 00:19:39 13° 271° (W) 00:21:31 145.950 - 145.970 MHz USB
PCSat 19 Apr 00:57:35 01:02:37 41° 113° (ESE) 01:07:41 145.825 MHz
OPAL 19 Apr 01:02:11 01:03:44 11° 51° (NE) 01:05:18 ?
UOSAT-12 19 Apr 01:03:22 01:06:30 17° 31° (NNE) 01:09:38 437.025 FM, 437.400 FM
